Location: Newark
(31.5350°N, 35.0986°E)
Time: 14:29:39
(UTC+00:00)

Vanguard 1 - Pass Details

Date: 22 September 2019
Orbit: 653 x 3830 km, 34.2° (Epoch: 20 October)

Event Time Altitude Azimuth Distance (km) Brightness Sun altitude
Rises 03:14:08 0° 281° (W) 7,904 - -3.7°
Exits shadow 03:15:08 - 281° (W) 7,699 14.0 -3.5°
Reaches altitude 10° 03:19:52 10° 282° (WNW) 6,696 13.7 -2.5°
Maximum altitude 03:40:41 88° 14° (NNE) 2,538 12.3 2.0°
Drops below altitude 10° 03:51:59 10° 104° (ESE) 3,944 15.3 4.4°
Sets 03:54:27 0° 105° (ESE) 4,628 15.6 4.9°
